TimeEDT,TemperatureF,Dew PointF,Humidity,Sea Level PressureIn,VisibilityMPH,Wind Direction,Wind SpeedMPH,Gust SpeedMPH,PrecipitationIn,Events,Conditions,WindDirDegrees,DateUTC
12:15 AM,57.2,51.8,82,30.07,-9999.0,Calm,Calm,-,N/A,,Overcast,0,2013-10-05 04:15:00
12:35 AM,57.2,51.8,82,30.07,-9999.0,Calm,Calm,-,N/A,,Overcast,0,2013-10-05 04:35:00
12:55 AM,57.2,51.8,82,30.06,-9999.0,Calm,Calm,-,N/A,,Overcast,0,2013-10-05 04:55:00
1:15 AM,57.2,51.8,82,30.07,-9999.0,Calm,Calm,-,N/A,,Overcast,0,2013-10-05 05:15:00
1:35 AM,57.2,51.8,82,30.07,-9999.0,North,4.6,-,N/A,,Overcast,360,2013-10-05 05:35:00
1:55 AM,57.2,51.8,82,30.08,-9999.0,Calm,Calm,-,N/A,,Overcast,0,2013-10-05 05:55:00
2:15 AM,57.2,51.8,82,30.08,-9999.0,North,5.8,-,N/A,,Overcast,360,2013-10-05 06:15:00
2:35 AM,57.2,48.2,72,30.07,-9999.0,NNE,6.9,-,N/A,,Mostly Cloudy,20,2013-10-05 06:35:00
2:55 AM,57.2,46.4,67,30.07,-9999.0,NNE,6.9,-,N/A,,Overcast,20,2013-10-05 06:55:00
3:15 AM,57.2,44.6,63,30.07,-9999.0,North,3.5,-,N/A,,Mostly Cloudy,360,2013-10-05 07:15:00
3:35 AM,57.2,44.6,63,30.07,-9999.0,North,6.9,-,N/A,,Mostly Cloudy,10,2013-10-05 07:35:00
3:55 AM,57.2,44.6,63,30.08,-9999.0,North,4.6,-,N/A,,Overcast,10,2013-10-05 07:55:00
4:15 AM,57.2,46.4,67,30.09,-9999.0,North,4.6,-,N/A,,Overcast,360,2013-10-05 08:15:00
4:35 AM,57.2,46.4,67,30.08,-9999.0,NNE,5.8,-,N/A,,Overcast,20,2013-10-05 08:35:00
4:55 AM,57.2,44.6,63,30.09,-9999.0,NNE,5.8,-,N/A,,Overcast,20,2013-10-05 08:55:00
5:15 AM,57.2,42.8,59,30.09,-9999.0,North,4.6,-,N/A,,Overcast,10,2013-10-05 09:15:00
5:35 AM,57.2,42.8,59,30.10,-9999.0,North,5.8,-,N/A,,Overcast,10,2013-10-05 09:35:00
5:55 AM,55.4,42.8,63,30.10,-9999.0,NNE,5.8,-,N/A,,Overcast,20,2013-10-05 09:55:00
6:15 AM,55.4,42.8,63,30.11,-9999.0,North,5.8,-,N/A,,Overcast,360,2013-10-05 10:15:00
6:35 AM,55.4,42.8,63,30.12,-9999.0,North,5.8,-,N/A,,Overcast,10,2013-10-05 10:35:00
6:55 AM,55.4,41.0,58,30.12,-9999.0,NNE,6.9,-,N/A,,Overcast,20,2013-10-05 10:55:00
7:15 AM,55.4,42.8,63,30.12,-9999.0,NNE,5.8,-,N/A,,Overcast,20,2013-10-05 11:15:00
7:35 AM,55.4,42.8,63,30.12,-9999.0,NNE,4.6,-,N/A,,Overcast,30,2013-10-05 11:35:00
7:55 AM,55.4,42.8,63,30.11,-9999.0,NE,6.9,-,N/A,,Overcast,40,2013-10-05 11:55:00
8:15 AM,55.4,41.0,58,30.13,-9999.0,North,6.9,-,N/A,,Overcast,10,2013-10-05 12:15:00
8:35 AM,55.4,41.0,58,30.14,-9999.0,NNE,5.8,-,N/A,,Overcast,20,2013-10-05 12:35:00
8:55 AM,55.4,42.8,63,30.13,-9999.0,NE,6.9,-,N/A,,Overcast,40,2013-10-05 12:55:00
9:15 AM,57.2,42.8,59,30.13,-9999.0,NE,8.1,-,N/A,,Overcast,50,2013-10-05 13:15:00
9:35 AM,57.2,42.8,59,30.13,-9999.0,ENE,8.1,-,N/A,,Overcast,60,2013-10-05 13:35:00
9:55 AM,57.2,44.6,63,30.13,-9999.0,ENE,8.1,-,N/A,,Overcast,70,2013-10-05 13:55:00
10:15 AM,59.0,44.6,59,30.13,-9999.0,NE,8.1,-,N/A,,Overcast,40,2013-10-05 14:15:00
10:35 AM,59.0,44.6,59,30.13,-9999.0,ENE,4.6,-,N/A,,Overcast,60,2013-10-05 14:35:00
10:55 AM,60.8,44.6,55,30.12,-9999.0,Calm,Calm,-,N/A,,Overcast,0,2013-10-05 14:55:00
11:15 AM,60.8,44.6,55,30.12,-9999.0,NE,6.9,-,N/A,,Overcast,50,2013-10-05 15:15:00
11:35 AM,60.8,44.6,55,30.13,-9999.0,ENE,4.6,-,N/A,,Overcast,60,2013-10-05 15:35:00
11:55 AM,60.8,44.6,55,30.13,-9999.0,NNE,3.5,-,N/A,,Overcast,20,2013-10-05 15:55:00
12:15 PM,60.8,44.6,55,30.12,-9999.0,East,5.8,-,N/A,,Overcast,80,2013-10-05 16:15:00
12:35 PM,60.8,44.6,55,30.12,-9999.0,NE,3.5,-,N/A,,Overcast,50,2013-10-05 16:35:00
12:55 PM,62.6,44.6,52,30.11,-9999.0,Calm,Calm,-,N/A,,Overcast,0,2013-10-05 16:55:00
1:15 PM,62.6,46.4,55,30.10,-9999.0,Calm,Calm,-,N/A,,Overcast,0,2013-10-05 17:15:00
1:35 PM,62.6,46.4,55,30.09,-9999.0,Calm,Calm,-,N/A,,Overcast,0,2013-10-05 17:35:00
1:55 PM,64.4,46.4,52,30.09,-9999.0,Calm,Calm,-,N/A,,Overcast,0,2013-10-05 17:55:00
2:15 PM,62.6,46.4,55,30.09,-9999.0,NE,3.5,-,N/A,,Overcast,40,2013-10-05 18:15:00
2:35 PM,62.6,46.4,55,30.09,-9999.0,NE,3.5,-,N/A,,Overcast,50,2013-10-05 18:35:00
2:55 PM,62.6,46.4,55,30.09,-9999.0,NE,4.6,-,N/A,,Overcast,40,2013-10-05 18:55:00
3:15 PM,62.6,46.4,55,30.08,-9999.0,NE,5.8,-,N/A,,Overcast,50,2013-10-05 19:15:00
3:35 PM,62.6,46.4,55,30.08,-9999.0,ENE,3.5,-,N/A,,Overcast,70,2013-10-05 19:35:00
3:55 PM,62.6,46.4,55,30.09,-9999.0,East,3.5,-,N/A,,Overcast,80,2013-10-05 19:55:00
4:15 PM,62.6,48.2,59,30.09,-9999.0,South,6.9,-,N/A,,Overcast,170,2013-10-05 20:15:00
4:35 PM,60.8,48.2,63,30.09,-9999.0,SSE,4.6,-,N/A,,Overcast,160,2013-10-05 20:35:00
4:55 PM,59.0,48.2,67,30.10,-9999.0,SE,3.5,-,N/A,,Overcast,130,2013-10-05 20:55:00
5:15 PM,57.2,48.2,72,30.09,-9999.0,SSE,3.5,-,N/A,,Overcast,150,2013-10-05 21:15:00
5:35 PM,57.2,48.2,72,30.10,-9999.0,Calm,Calm,-,N/A,,Overcast,0,2013-10-05 21:35:00
5:55 PM,57.2,48.2,72,30.10,-9999.0,SE,3.5,-,N/A,,Overcast,140,2013-10-05 21:55:00
6:15 PM,57.2,48.2,72,30.10,-9999.0,Calm,Calm,-,N/A,,Overcast,0,2013-10-05 22:15:00
6:35 PM,55.4,48.2,77,30.10,-9999.0,Calm,Calm,-,N/A,,Overcast,0,2013-10-05 22:35:00
6:55 PM,57.2,48.2,72,30.11,-9999.0,Calm,Calm,-,N/A,,Overcast,0,2013-10-05 22:55:00
7:15 PM,57.2,48.2,72,30.11,-9999.0,Calm,Calm,-,N/A,,Overcast,0,2013-10-05 23:15:00
7:35 PM,55.4,48.2,77,30.11,-9999.0,Calm,Calm,-,N/A,,Overcast,0,2013-10-05 23:35:00
7:55 PM,55.4,50.0,82,30.11,-9999.0,Calm,Calm,-,N/A,,Overcast,0,2013-10-05 23:55:00
8:15 PM,55.4,48.2,77,30.11,-9999.0,Calm,Calm,-,N/A,,Overcast,0,2013-10-06 00:15:00
8:35 PM,55.4,48.2,77,30.11,-9999.0,East,3.5,-,N/A,,Overcast,80,2013-10-06 00:35:00
8:55 PM,55.4,48.2,77,30.11,-9999.0,Calm,Calm,-,N/A,,Overcast,0,2013-10-06 00:55:00
9:15 PM,55.4,50.0,82,30.12,-9999.0,Calm,Calm,-,N/A,,Overcast,0,2013-10-06 01:15:00
9:35 PM,55.4,50.0,82,30.12,-9999.0,Calm,Calm,-,N/A,,Overcast,0,2013-10-06 01:35:00
9:55 PM,55.4,50.0,82,30.11,-9999.0,Calm,Calm,-,N/A,,Overcast,0,2013-10-06 01:55:00
10:15 PM,55.4,50.0,82,30.12,-9999.0,Calm,Calm,-,N/A,,Overcast,0,2013-10-06 02:15:00
10:35 PM,55.4,50.0,82,30.13,-9999.0,Calm,Calm,-,N/A,,Overcast,0,2013-10-06 02:35:00
10:55 PM,55.4,50.0,82,30.13,-9999.0,Calm,Calm,-,N/A,,Overcast,0,2013-10-06 02:55:00
11:15 PM,55.4,50.0,82,30.13,-9999.0,Calm,Calm,-,N/A,,Overcast,0,2013-10-06 03:15:00
11:35 PM,55.4,50.0,82,30.13,-9999.0,Calm,Calm,-,N/A,,Overcast,0,2013-10-06 03:35:00
11:55 PM,55.4,50.0,82,30.13,-9999.0,Calm,Calm,-,N/A,,Overcast,0,2013-10-06 03:55:00